BVI2DW EHAM-EGHI

Flight info

Callsign BVI2DW
Flight time 0h 46m
Altitude 24000
Route IDRID L980 SABER M40 UMBUR
Aircraft B736/M-SDE2E3FGHIRWXY/LB1

Departure

Time 2026-04-27 19:56
Airport Amsterdam Airport Schiphol (EHAM)

Arrival

Time 2026-04-27 20:43
Airport Southampton Airport (EGHI)
Time Latitude Longitude Altitude Speed Heading
2026-04-27 19:29 52.32325 4.74699 -4 ft 0 kts 93°
2026-04-27 19:51 52.32325 4.74698 -4 ft 1 kts 93°
2026-04-27 19:51 52.32326 4.74675 -4 ft 3 kts 95°
2026-04-27 19:51 52.32328 4.74642 -4 ft 3 kts 97°
2026-04-27 19:51 52.32331 4.74609 -4 ft 3 kts 103°
2026-04-27 19:52 52.32338 4.74578 -4 ft 3 kts 122°
2026-04-27 19:52 52.32348 4.74560 -4 ft 2 kts 185°
2026-04-27 19:52 52.32353 4.74560 -4 ft 1 kts 204°
2026-04-27 19:55 52.32839 4.70882 -3 ft 0 kts
2026-04-27 19:56 52.32841 4.70882 -3 ft 4 kts
2026-04-27 19:56 52.33153 4.70908 -9 ft 85 kts
2026-04-27 19:56 52.33959 4.70980 32 ft 142 kts
2026-04-27 19:56 52.34992 4.71093 605 ft 148 kts
2026-04-27 19:57 52.35990 4.71211 1468 ft 143 kts
2026-04-27 19:57 52.37013 4.71295 2085 ft 157 kts
2026-04-27 19:57 52.38219 4.71405 2387 ft 189 kts
2026-04-27 19:57 52.39633 4.71537 2666 ft 216 kts
2026-04-27 19:58 52.41176 4.71683 3203 ft 226 kts
2026-04-27 19:58 52.42806 4.71569 3688 ft 246 kts 345°
2026-04-27 19:58 52.44310 4.70177 4518 ft 254 kts 318°
2026-04-27 19:58 52.45279 4.67796 5397 ft 261 kts 291°
2026-04-27 19:59 52.45442 4.64814 6275 ft 269 kts 262°
2026-04-27 19:59 52.44880 4.61867 7225 ft 273 kts 248°
2026-04-27 19:59 52.44070 4.59003 8227 ft 274 kts 245°
2026-04-27 19:59 52.43234 4.56230 9259 ft 276 kts 244°
2026-04-27 20:00 52.42382 4.53404 10341 ft 277 kts 244°
2026-04-27 20:00 52.41518 4.50497 10965 ft 296 kts 244°
2026-04-27 20:00 52.40584 4.47313 11256 ft 322 kts 245°
2026-04-27 20:00 52.39603 4.43937 12012 ft 332 kts 245°
2026-04-27 20:01 52.38610 4.40504 12973 ft 335 kts 245°
2026-04-27 20:01 52.37609 4.37036 13984 ft 339 kts 245°
2026-04-27 20:01 52.36597 4.33528 14854 ft 343 kts 245°
2026-04-27 20:01 52.35576 4.29988 15799 ft 345 kts 245°
2026-04-27 20:02 52.34546 4.26420 16725 ft 349 kts 245°
2026-04-27 20:02 52.33502 4.22809 17624 ft 353 kts 245°
2026-04-27 20:02 52.32442 4.19155 18518 ft 358 kts 245°
2026-04-27 20:02 52.31312 4.15517 19334 ft 361 kts 240°
2026-04-27 20:03 52.29855 4.12148 20227 ft 362 kts 233°
2026-04-27 20:03 52.28317 4.08946 21353 ft 355 kts 233°
2026-04-27 20:03 52.26787 4.05800 22644 ft 346 kts 233°
2026-04-27 20:03 52.25320 4.02782 23841 ft 342 kts 234°
2026-04-27 20:04 52.23853 3.99752 24161 ft 337 kts 234°
2026-04-27 20:04 52.22394 3.96727 24244 ft 341 kts 234°
2026-04-27 20:04 52.20937 3.93697 24254 ft 339 kts 234°
2026-04-27 20:04 52.19448 3.90598 24280 ft 356 kts 234°
2026-04-27 20:05 52.17880 3.87331 24285 ft 374 kts 234°
2026-04-27 20:05 52.16240 3.83920 24284 ft 390 kts 234°
2026-04-27 20:05 52.14533 3.80377 24274 ft 404 kts 233°
2026-04-27 20:05 52.12776 3.76735 24271 ft 415 kts 233°
2026-04-27 20:06 52.10971 3.73004 24266 ft 424 kts 233°
2026-04-27 20:06 52.09139 3.69221 24256 ft 426 kts 233°
2026-04-27 20:06 52.07317 3.65467 24242 ft 422 kts 233°
2026-04-27 20:06 52.05527 3.61782 24249 ft 419 kts 233°
2026-04-27 20:07 52.03724 3.58071 24249 ft 418 kts 233°
2026-04-27 20:07 52.01919 3.54360 24243 ft 418 kts 233°
2026-04-27 20:07 52.00117 3.50664 24256 ft 418 kts 233°
2026-04-27 20:07 51.98335 3.46938 24251 ft 418 kts 235°
2026-04-27 20:08 51.96610 3.43133 24250 ft 418 kts 236°
2026-04-27 20:08 51.94907 3.39309 24252 ft 418 kts 236°
2026-04-27 20:08 51.93204 3.35490 24247 ft 419 kts 236°
2026-04-27 20:08 51.91490 3.31679 24248 ft 418 kts 236°
2026-04-27 20:09 51.89765 3.27875 24247 ft 418 kts 236°
2026-04-27 20:09 51.88042 3.24091 24251 ft 418 kts 236°
2026-04-27 20:09 51.86515 3.20131 24242 ft 416 kts 244°
2026-04-27 20:09 51.85381 3.15817 24253 ft 415 kts 251°
2026-04-27 20:10 51.84560 3.11355 24250 ft 414 kts 257°
2026-04-27 20:10 51.84148 3.06738 24259 ft 414 kts 263°
2026-04-27 20:10 51.83870 3.02109 24252 ft 414 kts 264°
2026-04-27 20:10 51.83598 2.97478 24254 ft 414 kts 264°
2026-04-27 20:11 51.83317 2.92840 24258 ft 414 kts 263°
2026-04-27 20:11 51.83026 2.88222 24258 ft 413 kts 263°
2026-04-27 20:11 51.82726 2.83595 24255 ft 413 kts 263°
2026-04-27 20:11 51.82421 2.78978 24256 ft 413 kts 263°
2026-04-27 20:12 51.82114 2.74363 24264 ft 413 kts 263°
2026-04-27 20:12 51.81910 2.71311 24266 ft 413 kts 263°
2026-04-27 20:12 51.81495 2.65145 24266 ft 412 kts 263°
2026-04-27 20:12 51.81181 2.60543 24267 ft 413 kts 263°
2026-04-27 20:13 51.80862 2.55936 24269 ft 413 kts 263°
2026-04-27 20:13 51.80543 2.51329 24270 ft 413 kts 263°
2026-04-27 20:13 51.80221 2.46722 24269 ft 413 kts 263°
2026-04-27 20:13 51.79899 2.42114 24268 ft 413 kts 263°
2026-04-27 20:14 51.79574 2.37505 24269 ft 413 kts 263°
2026-04-27 20:14 51.79249 2.32897 24268 ft 413 kts 263°
2026-04-27 20:14 51.78922 2.28289 24270 ft 413 kts 263°
2026-04-27 20:14 51.78592 2.23681 24266 ft 413 kts 263°
2026-04-27 20:15 51.78282 2.19132 24272 ft 413 kts 263°
2026-04-27 20:15 51.78006 2.14515 24264 ft 413 kts 264°
2026-04-27 20:15 51.77740 2.09835 24266 ft 413 kts 264°
2026-04-27 20:15 51.77478 2.05219 24266 ft 413 kts 264°
2026-04-27 20:16 51.77210 2.00597 24266 ft 414 kts 264°
2026-04-27 20:16 51.76938 1.95973 24269 ft 414 kts 264°
2026-04-27 20:16 51.76661 1.91345 24269 ft 414 kts 264°
2026-04-27 20:16 51.76381 1.86719 24270 ft 415 kts 264°
2026-04-27 20:17 51.76098 1.82096 24270 ft 415 kts 264°
2026-04-27 20:17 51.75812 1.77444 24273 ft 415 kts 264°
2026-04-27 20:17 51.75526 1.72814 24274 ft 416 kts 264°
2026-04-27 20:17 51.75335 1.69736 24275 ft 416 kts 264°
2026-04-27 20:18 51.74947 1.63526 24273 ft 416 kts 264°
2026-04-27 20:18 51.74656 1.58940 24271 ft 416 kts 264°
2026-04-27 20:18 51.74356 1.54287 24271 ft 417 kts 264°
2026-04-27 20:18 51.74054 1.49635 24270 ft 417 kts 264°
2026-04-27 20:19 51.73750 1.44992 24272 ft 417 kts 264°
2026-04-27 20:19 51.73444 1.40325 24272 ft 418 kts 264°
2026-04-27 20:19 51.73137 1.35675 24268 ft 418 kts 264°
2026-04-27 20:19 51.72828 1.31005 24271 ft 418 kts 264°
2026-04-27 20:20 51.72517 1.26338 24268 ft 419 kts 264°
2026-04-27 20:20 51.72204 1.21668 24269 ft 419 kts 264°
2026-04-27 20:20 51.71890 1.16990 24271 ft 420 kts 264°
2026-04-27 20:20 51.71574 1.12316 24268 ft 420 kts 264°
2026-04-27 20:21 51.71255 1.07635 24266 ft 420 kts 264°
2026-04-27 20:21 51.70939 1.02941 24267 ft 421 kts 264°
2026-04-27 20:21 51.70484 0.98281 24259 ft 422 kts 257°
2026-04-27 20:21 51.69614 0.93773 24270 ft 424 kts 251°
2026-04-27 20:22 51.68374 0.89441 24261 ft 427 kts 242°
2026-04-27 20:22 51.66795 0.85388 24270 ft 428 kts 240°
2026-04-27 20:22 51.65184 0.81345 24265 ft 428 kts 240°
2026-04-27 20:22 51.63594 0.77288 24265 ft 429 kts 240°
2026-04-27 20:23 51.62118 0.73125 24256 ft 427 kts 247°
2026-04-27 20:23 51.60965 0.68722 24270 ft 427 kts 250°
2026-04-27 20:23 51.59832 0.64307 24255 ft 428 kts 250°
2026-04-27 20:23 51.58678 0.59890 24259 ft 429 kts 250°
2026-04-27 20:24 51.57513 0.55469 24266 ft 430 kts 249°
2026-04-27 20:24 51.56344 0.51047 24261 ft 431 kts 249°
2026-04-27 20:24 51.55169 0.46607 24260 ft 431 kts 250°
2026-04-27 20:24 51.53995 0.42176 24257 ft 432 kts 250°
2026-04-27 20:25 51.52814 0.37729 24260 ft 433 kts 250°
2026-04-27 20:25 51.51630 0.33286 24263 ft 433 kts 250°
2026-04-27 20:25 51.50440 0.28834 24260 ft 434 kts 250°
2026-04-27 20:25 51.49246 0.24373 24261 ft 435 kts 250°
2026-04-27 20:26 51.48055 0.19924 24264 ft 436 kts 250°
2026-04-27 20:26 51.46857 0.15459 24263 ft 436 kts 250°
2026-04-27 20:26 51.45654 0.10988 24265 ft 437 kts 250°
2026-04-27 20:26 51.44449 0.06517 24263 ft 438 kts 250°
2026-04-27 20:27 51.43237 0.02024 24265 ft 438 kts 250°
2026-04-27 20:27 51.42025 -0.02463 24267 ft 439 kts 250°
2026-04-27 20:27 51.40809 -0.06959 24186 ft 440 kts 250°
2026-04-27 20:27 51.39585 -0.11478 23031 ft 444 kts 250°
2026-04-27 20:28 51.38369 -0.15947 22149 ft 433 kts 250°
2026-04-27 20:28 51.37177 -0.20319 21267 ft 424 kts 251°
2026-04-27 20:28 51.36008 -0.24602 20389 ft 416 kts 251°
2026-04-27 20:28 51.35229 -0.27456 19778 ft 411 kts 251°
2026-04-27 20:29 51.33733 -0.32935 18679 ft 402 kts 251°
2026-04-27 20:29 51.32620 -0.37006 17782 ft 396 kts 250°
2026-04-27 20:29 51.31523 -0.41002 16936 ft 389 kts 250°
2026-04-27 20:29 51.30466 -0.44945 16154 ft 382 kts 254°
2026-04-27 20:30 51.29791 -0.48958 15750 ft 369 kts 261°
2026-04-27 20:30 51.29432 -0.51688 15436 ft 376 kts 262°
2026-04-27 20:30 51.28920 -0.55851 14986 ft 387 kts 263°
2026-04-27 20:30 51.28404 -0.60045 14527 ft 392 kts 262°
2026-04-27 20:31 51.27864 -0.64304 14062 ft 390 kts 262°
2026-04-27 20:31 51.27312 -0.68535 13551 ft 388 kts 262°
2026-04-27 20:31 51.26754 -0.72735 13066 ft 386 kts 261°
2026-04-27 20:31 51.26192 -0.76908 12593 ft 381 kts 261°
2026-04-27 20:32 51.25640 -0.80970 12155 ft 368 kts 261°
2026-04-27 20:32 51.25104 -0.84896 11723 ft 355 kts 261°
2026-04-27 20:32 51.24586 -0.88682 11315 ft 344 kts 261°
2026-04-27 20:32 51.24082 -0.92368 10912 ft 335 kts 261°
2026-04-27 20:33 51.23593 -0.95949 10521 ft 326 kts 260°
2026-04-27 20:33 51.23114 -0.99447 10161 ft 319 kts 260°
2026-04-27 20:33 51.22659 -1.02746 10143 ft 291 kts 260°
2026-04-27 20:33 51.22242 -1.05761 10052 ft 269 kts 260°
2026-04-27 20:34 51.21844 -1.08655 9581 ft 268 kts 260°
2026-04-27 20:34 51.21446 -1.11552 9145 ft 264 kts 260°
2026-04-27 20:34 51.21051 -1.14406 8572 ft 263 kts 260°
2026-04-27 20:34 51.20660 -1.17218 8202 ft 256 kts 260°
2026-04-27 20:35 51.20279 -1.19943 7870 ft 248 kts 260°
2026-04-27 20:35 51.19810 -1.22539 7555 ft 243 kts 244°
2026-04-27 20:35 51.18681 -1.24500 7263 ft 241 kts 214°
2026-04-27 20:35 51.17148 -1.25541 7013 ft 240 kts 198°
2026-04-27 20:36 51.15530 -1.26222 6733 ft 241 kts 195°
2026-04-27 20:36 51.13896 -1.26861 6436 ft 243 kts 195°
2026-04-27 20:36 51.12256 -1.27517 6128 ft 244 kts 195°
2026-04-27 20:36 51.10609 -1.28193 5830 ft 244 kts 195°
2026-04-27 20:37 51.08984 -1.28868 5542 ft 245 kts 195°
2026-04-27 20:37 51.07340 -1.29554 5256 ft 245 kts 195°
2026-04-27 20:37 51.05682 -1.30221 4946 ft 246 kts 189°
2026-04-27 20:37 51.04036 -1.29870 4648 ft 238 kts 149°
2026-04-27 20:38 51.03004 -1.28010 4426 ft 218 kts 103°
2026-04-27 20:38 51.03070 -1.25780 4207 ft 200 kts 58°
2026-04-27 20:38 51.04041 -1.24406 4041 ft 181 kts 28°
2026-04-27 20:38 51.05084 -1.23335 3829 ft 178 kts 31°
2026-04-27 20:39 51.06226 -1.22715 3607 ft 175 kts
2026-04-27 20:39 51.07414 -1.23181 3241 ft 179 kts 332°
2026-04-27 20:39 51.08180 -1.24705 2952 ft 186 kts 287°
2026-04-27 20:39 51.07962 -1.26746 2725 ft 199 kts 237°
2026-04-27 20:40 51.06920 -1.28233 2505 ft 206 kts 218°
2026-04-27 20:40 51.05737 -1.29517 2212 ft 205 kts 205°
2026-04-27 20:40 51.04440 -1.30416 1930 ft 201 kts 199°
2026-04-27 20:40 51.03141 -1.31155 1640 ft 193 kts 197°
2026-04-27 20:41 51.01923 -1.31829 1394 ft 179 kts 197°
2026-04-27 20:41 51.00795 -1.32459 1163 ft 164 kts 198°
2026-04-27 20:41 50.99787 -1.33022 940 ft 145 kts 199°
2026-04-27 20:41 50.98888 -1.33524 745 ft 133 kts 198°
2026-04-27 20:42 50.98042 -1.33996 583 ft 128 kts 198°
2026-04-27 20:42 50.97216 -1.34458 406 ft 124 kts 198°
2026-04-27 20:42 50.96400 -1.34914 244 ft 124 kts 198°
2026-04-27 20:42 50.95583 -1.35370 69 ft 124 kts 199°
2026-04-27 20:43 50.94853 -1.35778 40 ft 93 kts 199°
2026-04-27 20:43 50.94386 -1.36039 34 ft 49 kts 199°
2026-04-27 20:43 50.94292 -1.36091 37 ft 0 kts 199°